Weather History for San Diego, CA

Change the Weather History Date:

Wednesday, October 9, 2013

  Actual Average Record
Temperature  
Mean Temperature 64 °F 68 °F  
Max Temperature 66 °F 73 °F 99 °F (1994)
Min Temperature 61 °F 62 °F 50 °F (1879)
Degree Days  
Heating Degree Days 1 0  
Month to date heating degree days 1 0  
Since 1 July heating degree days 1 2  
Cooling Degree Days 0 3  
Month to date cooling degree days 36 30  
Year to date cooling degree days 715 666  
Growing Degree Days 12 (Base 50)    
Moisture  
Dew Point 50 °F    
Average Humidity 64    
Maximum Humidity 72    
Minimum Humidity 56    
Precipitation  
Precipitation 0.02 in 0.02 in 0.74 in (1932)
Month to date precipitation 0.02 0.12  
Year to date precipitation 3.40 7.35  
Since 1 July precipitation 0.07 0.32  
Snow  
Snow 0.00 in - - ()
Month to date snowfall 0.0  
Year to date snowfall 0.0  
Since 1 July snowfall 0.0  
Snow Depth 0.00 in    
Sea Level Pressure  
Sea Level Pressure 29.83 in    
Wind  
Wind Speed 12 mph (SW)    
Max Wind Speed 24 mph    
Max Gust Speed 29 mph    
Visibility 9 miles    
Events Rain    
T = Trace of Precipitation, MM = Missing Value Source: NWS Daily Summary

Daily Weather History Graph

Daily Weather History Graph

Search for Another Location

Airport:

Trip Planner

Search our weather history database for the weather conditions in past years. The results will help you decide how hot, cold, wet, or windy it might be!

Date:

Astronomy

Oct. 09, 2013 Rise Set
Actual Time 6:48 AM PDT 6:22 PM PDT
Civil Twilight 6:23 AM PDT 6:47 PM PDT
Nautical Twilight 5:55 AM PDT 7:15 PM PDT
Astronomical Twilight 5:26 AM PDT 7:44 PM PDT
Moon 11:35 AM PDT (10/9) 10:14 PM PDT (10/9)
Length of Visible Light 12h 23m
Length of Day
11h 33m
Waxing Crescent, 26% of the Moon is Illuminated
Oct 9
Waxing Crescent
Oct 11
First Quarter
Oct 18
Full
Oct 26
Last Quarter
Nov 3
New

Hourly Weather History & Observations

Time (PDT) Temp. Dew Point Humidity Pressure Visibility Wind Dir Wind Speed Gust Speed Precip Events Conditions
12:03 AM 62.6 °F 51.8 °F 68% 29.87 in 10.0 mi SSW 8.1 mph - N/A   Mostly Cloudy
12:43 AM 62.6 °F 51.8 °F 68% 29.86 in 10.0 mi SSW 9.2 mph - N/A   Mostly Cloudy
12:51 AM 64.0 °F 51.1 °F 63% 29.86 in 10.0 mi SSW 11.5 mph - N/A   Mostly Cloudy
1:51 AM 63.0 °F 51.1 °F 65% 29.86 in 10.0 mi SW 12.7 mph - N/A   Overcast
2:51 AM 63.0 °F 50.0 °F 63% 29.85 in 10.0 mi WSW 8.1 mph - N/A   Mostly Cloudy
3:51 AM 63.0 °F 48.0 °F 58% 29.83 in 10.0 mi WSW 10.4 mph - N/A   Overcast
4:51 AM 61.0 °F 52.0 °F 72% 29.83 in 10.0 mi SW 11.5 mph - 0.00 in   Overcast
5:51 AM 62.1 °F 50.0 °F 65% 29.83 in 10.0 mi SW 9.2 mph - N/A   Overcast
6:51 AM 64.0 °F 48.0 °F 56% 29.84 in 10.0 mi SW 11.5 mph - N/A   Overcast
7:51 AM 63.0 °F 48.9 °F 60% 29.85 in 10.0 mi SW 11.5 mph - N/A   Mostly Cloudy
8:51 AM 63.0 °F 48.9 °F 60% 29.86 in 10.0 mi SW 16.1 mph - N/A   Mostly Cloudy
9:51 AM 64.0 °F 48.0 °F 56% 29.87 in 10.0 mi WSW 12.7 mph - N/A   Mostly Cloudy
10:51 AM 64.0 °F 48.0 °F 56% 29.87 in 10.0 mi SW 13.8 mph - N/A   Mostly Cloudy
11:51 AM 64.0 °F 50.0 °F 60% 29.86 in 9.0 mi WSW 13.8 mph - N/A   Mostly Cloudy
12:51 PM 64.9 °F 48.9 °F 56% 29.84 in 9.0 mi WSW 12.7 mph 19.6 mph N/A   Mostly Cloudy
1:51 PM 64.9 °F 50.0 °F 58% 29.82 in 9.0 mi SW 15.0 mph - N/A   Mostly Cloudy
2:51 PM 66.0 °F 51.1 °F 59% 29.80 in 9.0 mi South 15.0 mph - N/A   Mostly Cloudy
3:47 PM 66.2 °F 51.8 °F 60% 29.79 in 9.0 mi SW 19.6 mph 24.2 mph N/A   Mostly Cloudy
3:51 PM 64.9 °F 51.1 °F 61% 29.79 in 9.0 mi SW 21.9 mph - 0.00 in Rain Light Rain
3:58 PM 62.6 °F 53.6 °F 72% 29.79 in 5.0 mi SW 15.0 mph - 0.01 in Rain Light Rain
4:51 PM 64.0 °F 52.0 °F 65% 29.78 in 10.0 mi SW 19.6 mph 24.2 mph 0.01 in   Mostly Cloudy
5:04 PM 60.8 °F 53.6 °F 77% 29.79 in 2.0 mi WSW 17.3 mph 31.1 mph 0.03 in Rain Heavy Rain
5:09 PM 60.8 °F 53.6 °F 77% 29.79 in 3.0 mi WSW 19.6 mph 31.1 mph 0.03 in Rain Light Rain
5:51 PM 62.1 °F 53.1 °F 72% 29.78 in 9.0 mi WSW 18.4 mph 27.6 mph 0.03 in   Mostly Cloudy
6:51 PM 63.0 °F 51.1 °F 65% 29.78 in 10.0 mi WSW 10.4 mph - N/A   Mostly Cloudy
7:51 PM 63.0 °F 50.0 °F 63% 29.78 in 10.0 mi WSW 16.1 mph - 0.00 in   Mostly Cloudy
8:51 PM 62.1 °F 52.0 °F 70% 29.80 in 7.0 mi WSW 15.0 mph 21.9 mph 0.03 in Rain Light Rain
9:51 PM 61.0 °F 48.0 °F 62% 29.81 in 10.0 mi WNW 12.7 mph 18.4 mph 0.00 in   Overcast
10:51 PM 59.0 °F 48.9 °F 69% 29.83 in 10.0 mi WNW 6.9 mph - 0.00 in   Overcast
11:51 PM 60.1 °F 48.0 °F 64% 29.84 in 10.0 mi West 10.4 mph - N/A   Overcast